Weather in Kuzhmara

Russia / Mari El Republic     56°08′37″N   48°04′07″E
temp.,
°C
wind,
m/s
gust,
m/s
humid.,
%
clouds,
%
prec.,
mm/h
press.,
hPa
HPBL,
m
27 february, sat
sat2700:00−12se61294100 4.5 998571
03:00−11ese4995100 5.8 997342
06:00−11e4795100 0.8 996293
09:00−11ene4795100 1.6 997341
12:00−9ne4794100 0.8 998522
15:00−9nne5793100 1.6 1001671
18:00−12n51091100 0.3 1003568
21:00−14n499399 0.3 1005334
28 february, sun
sun2800:00−17n499699 0.0 1007253
03:00−18nnw4109590 0.0 1009265
06:00−20nnw399654 0.0 1010218
09:00−18nnw379547 0.0 1011275
12:00−14nnw369283 0.0 1012436
15:00−13n479092 0.0 1013596
18:00−18n239695 0.0 101535
21:00−21n239751 0.0 101823
1 march, mon
mon100:00−22n23970 0.0 101920
03:00−23nnw22970 0.0 102020
06:00−24nnw22980 0.0 102220
09:00−19nnw12940 0.0 1023146
12:00−13w128873 0.0 1023373
15:00−11w238986 0.0 1022461
18:00−16sw339680 0.0 102162
21:00−18ssw359740 0.0 102097
2 march, tue
tue200:00−16ssw399772 0.0 1016206
03:00−13ssw4109586 0.1 1012311
06:00−9ssw51095100 1.0 1007475
09:00−6ssw51095100 2.0 1003493
12:00−1ssw4898100 1.6 1001542
15:000wsw37100100 3.1 999392
18:000wnw2599100 0.6 998294
21:00−1nnw51196100 1.7 999739
3 march, wed
wed300:00−2nnw5109299 0.1 1000627
03:00−8nw389478 0.1 1002161
06:00−8nw379671 0.0 1003152
09:00−6nw379383 0.0 1004297
12:00−2nnw489383 0.1 1006741
15:00−3nnw599192 0.5 1007873
18:00−7nnw3108997 0.2 1009492
21:00−9nw389468 0.2 1010155